sat.trackr.live / text

‹ back to catalog

STARLINK-30111

NORAD 56302 · 2023-056S

PAYLOAD ACTIVE UNKNOWN

§ Identity

Operator
Country
US
Launch date
2023-04-19
Launch site
AFETR
Launch vehicle
Mass (kg)
RCS (m²)

Purposes: comms

External: N2YO · Heavens-Above · Gunter

§ Orbital elements

Epoch: 2026-09-20T22:30:15.469056Z

Period
94.27 min
Inclination
43.0007°
Eccentricity
0.0001291
Mean motion
15.27563310 rev/d
Perigee alt
482.2 km
Apogee alt
484.0 km
Semi-major
6,861.2 km
B*
1.8861e-4
RAAN
185.9280°
Arg perigee
273.9019°
Mean anomaly
86.1685°
Rev number
18,996

§ Raw data

STARLINK-301111 56302U 23056S   26263.93767904  .00004929  00000+0  18861-3 0  99962 56302  43.0007 185.9280 0001291 273.9019  86.1685 15.27563310189969

JSON: /api/v1/satellites/56302 · /tle

For live sub-satellite position, see the globe view (requires WebGL).

§ Visibility from observer

Set your observer location to see the next 7 days of passes ≥ 10°. The values pass through the URL so the page stays shareable.

No JS? Fill the form by hand. The geolocation button needs JavaScript.